contact:dominique.lefevre@mio.osupytheas.fr, maurice.libes@osupytheas.fr, didier.mallarino@osupytheas.fr
Project:EMSO http://www.emso-fr.org/EMSO-France
Depth: 2436.0 m
Title:EMSO Ligure Ouest : Data MII capteur MICROCAT
DateTime_Computer,Latitude,Longitude,Temperature,Conductivity,Pressure,DateTime_Instrument
DateTime_Computer,Latitude,Longitude,degC,S m-1,dbar,DateTime_Instrument
2024-03-29T00:02:28Z,42.805,6.029,13.3046,4.60132,2470.894,2024-3-29T02:05:06Z
2024-03-29T00:05:31Z,42.805,6.029,13.3041,4.60133,2470.894,2024-3-29T02:08:10Z
2024-03-29T00:08:34Z,42.805,6.029,13.3043,4.60133,2470.917,2024-3-29T02:11:13Z
2024-03-29T00:11:37Z,42.805,6.029,13.3047,4.60133,2470.88,2024-3-29T02:14:16Z
2024-03-29T00:14:40Z,42.805,6.029,13.3047,4.60132,2470.904,2024-3-29T02:17:19Z
2024-03-29T00:17:43Z,42.805,6.029,13.3041,4.60132,2470.871,2024-3-29T02:20:22Z
2024-03-29T00:20:46Z,42.805,6.029,13.3043,4.60132,2470.94,2024-3-29T02:23:25Z
2024-03-29T00:23:49Z,42.805,6.029,13.3045,4.60134,2470.88,2024-3-29T02:26:28Z
2024-03-29T00:26:52Z,42.805,6.029,13.3045,4.60133,2470.871,2024-3-29T02:29:31Z
2024-03-29T00:29:56Z,42.805,6.029,13.3042,4.60132,2470.857,2024-3-29T02:32:34Z
2024-03-29T00:32:59Z,42.805,6.029,13.3044,4.60132,2470.88,2024-3-29T02:35:37Z
2024-03-29T00:36:02Z,42.805,6.029,13.3045,4.60133,2470.88,2024-3-29T02:38:40Z
2024-03-29T00:39:05Z,42.805,6.029,13.3043,4.60133,2470.88,2024-3-29T02:41:43Z
2024-03-29T00:42:08Z,42.805,6.029,13.3042,4.60132,2470.904,2024-3-29T02:44:47Z
2024-03-29T00:45:11Z,42.805,6.029,13.3043,4.60132,2470.904,2024-3-29T02:47:50Z
2024-03-29T00:48:14Z,42.805,6.029,13.3045,4.60131,2470.88,2024-3-29T02:50:53Z
2024-03-29T00:51:17Z,42.805,6.029,13.3040,4.60136,2470.857,2024-3-29T02:53:56Z
2024-03-29T00:54:20Z,42.805,6.029,13.3046,4.60133,2470.857,2024-3-29T02:56:59Z
2024-03-29T00:57:23Z,42.805,6.029,13.3041,4.60132,2470.871,2024-3-29T03:00:02Z
2024-03-29T01:00:26Z,42.805,6.029,13.3048,4.60133,2470.894,2024-3-29T03:03:05Z
2024-03-29T01:03:29Z,42.805,6.029,13.3047,4.60132,2470.88,2024-3-29T03:06:08Z
2024-03-29T01:06:33Z,42.805,6.029,13.3041,4.60133,2470.894,2024-3-29T03:09:11Z
2024-03-29T01:09:36Z,42.805,6.029,13.3043,4.60133,2470.857,2024-3-29T03:12:14Z
2024-03-29T01:12:39Z,42.805,6.029,13.3043,4.60132,2470.871,2024-3-29T03:15:17Z
2024-03-29T01:15:42Z,42.805,6.029,13.3042,4.60132,2470.857,2024-3-29T03:18:20Z
2024-03-29T01:18:45Z,42.805,6.029,13.3045,4.60134,2470.857,2024-3-29T03:21:23Z
2024-03-29T01:21:48Z,42.805,6.029,13.3048,4.60133,2470.88,2024-3-29T03:24:27Z
2024-03-29T01:24:51Z,42.805,6.029,13.3043,4.60134,2470.88,2024-3-29T03:27:30Z
2024-03-29T01:27:54Z,42.805,6.029,13.3046,4.60133,2470.871,2024-3-29T03:30:33Z
2024-03-29T01:30:57Z,42.805,6.029,13.3044,4.60132,2470.857,2024-3-29T03:33:36Z
2024-03-29T01:34:00Z,42.805,6.029,13.3044,4.60134,2470.857,2024-3-29T03:36:39Z
2024-03-29T01:37:03Z,42.805,6.029,13.3045,4.60134,2470.857,2024-3-29T03:39:42Z
2024-03-29T01:40:06Z,42.805,6.029,13.3044,4.60136,2470.88,2024-3-29T03:42:45Z
2024-03-29T01:43:09Z,42.805,6.029,13.3045,4.60134,2470.847,2024-3-29T03:45:48Z
2024-03-29T01:46:13Z,42.805,6.029,13.3042,4.60133,2470.857,2024-3-29T03:48:51Z
2024-03-29T01:49:16Z,42.805,6.029,13.3045,4.60134,2470.833,2024-3-29T03:51:54Z
2024-03-29T01:52:19Z,42.805,6.029,13.3044,4.60134,2470.857,2024-3-29T03:54:57Z
2024-03-29T01:55:22Z,42.805,6.029,13.3046,4.60133,2470.833,2024-3-29T03:58:00Z
2024-03-29T01:58:25Z,42.805,6.029,13.3045,4.60134,2470.857,2024-3-29T04:01:03Z
2024-03-29T02:01:28Z,42.805,6.029,13.3044,4.60134,2470.871,2024-3-29T04:04:07Z
2024-03-29T02:04:31Z,42.805,6.029,13.3041,4.60134,2470.833,2024-3-29T04:07:10Z
2024-03-29T02:07:34Z,42.805,6.029,13.3044,4.60134,2470.833,2024-3-29T04:10:13Z
2024-03-29T02:10:37Z,42.805,6.029,13.3045,4.60133,2470.833,2024-3-29T04:13:16Z
2024-03-29T02:13:40Z,42.805,6.029,13.3048,4.60132,2470.824,2024-3-29T04:16:19Z
2024-03-29T02:16:43Z,42.805,6.029,13.3045,4.60133,2470.833,2024-3-29T04:19:22Z
2024-03-29T02:19:46Z,42.805,6.029,13.3043,4.60133,2470.847,2024-3-29T04:22:25Z
2024-03-29T02:22:49Z,42.805,6.029,13.3044,4.60132,2470.833,2024-3-29T04:25:28Z
2024-03-29T02:25:53Z,42.805,6.029,13.3044,4.60133,2470.833,2024-3-29T04:28:31Z
2024-03-29T02:28:56Z,42.805,6.029,13.3047,4.60132,2470.833,2024-3-29T04:31:34Z
2024-03-29T02:31:59Z,42.805,6.029,13.3043,4.60133,2470.847,2024-3-29T04:34:37Z
2024-03-29T02:35:02Z,42.805,6.029,13.3043,4.60132,2470.824,2024-3-29T04:37:40Z
2024-03-29T02:38:05Z,42.805,6.029,13.3045,4.60135,2470.833,2024-3-29T04:40:44Z
2024-03-29T02:41:08Z,42.805,6.029,13.3042,4.60135,2470.847,2024-3-29T04:43:47Z
2024-03-29T02:44:11Z,42.805,6.029,13.3047,4.60134,2470.847,2024-3-29T04:46:50Z
2024-03-29T02:47:14Z,42.805,6.029,13.3046,4.60135,2470.847,2024-3-29T04:49:53Z
2024-03-29T02:50:17Z,42.805,6.029,13.3042,4.60134,2470.824,2024-3-29T04:52:56Z
2024-03-29T02:53:20Z,42.805,6.029,13.3046,4.60135,2470.871,2024-3-29T04:55:59Z
2024-03-29T02:56:23Z,42.805,6.029,13.3040,4.60134,2470.843,2024-3-29T04:59:02Z
2024-03-29T02:59:26Z,42.805,6.029,13.3046,4.60133,2470.847,2024-3-29T05:02:05Z
2024-03-29T03:02:30Z,42.805,6.029,13.3048,4.60135,2470.857,2024-3-29T05:05:08Z
2024-03-29T03:05:33Z,42.805,6.029,13.3046,4.60135,2470.847,2024-3-29T05:08:11Z
2024-03-29T03:08:36Z,42.805,6.029,13.3045,4.60135,2470.847,2024-3-29T05:11:14Z
2024-03-29T03:11:39Z,42.805,6.029,13.3044,4.60134,2470.81,2024-3-29T05:14:17Z
2024-03-29T03:14:42Z,42.805,6.029,13.3050,4.60134,2470.824,2024-3-29T05:17:21Z
2024-03-29T03:17:45Z,42.805,6.029,13.3046,4.60135,2470.81,2024-3-29T05:20:24Z
2024-03-29T03:20:48Z,42.805,6.029,13.3044,4.60135,2470.833,2024-3-29T05:23:27Z
2024-03-29T03:23:51Z,42.805,6.029,13.3046,4.60135,2470.81,2024-3-29T05:26:30Z
2024-03-29T03:26:54Z,42.805,6.029,13.3047,4.60134,2470.833,2024-3-29T05:29:33Z
2024-03-29T03:29:57Z,42.805,6.029,13.3048,4.60135,2470.833,2024-3-29T05:32:36Z
2024-03-29T03:33:00Z,42.805,6.029,13.3048,4.60137,2470.787,2024-3-29T05:35:39Z
2024-03-29T03:36:03Z,42.805,6.029,13.3044,4.60134,2470.81,2024-3-29T05:38:42Z
2024-03-29T03:39:07Z,42.805,6.029,13.3043,4.60135,2470.81,2024-3-29T05:41:45Z
2024-03-29T03:42:10Z,42.805,6.029,13.3043,4.60135,2470.81,2024-3-29T05:44:48Z
2024-03-29T03:45:13Z,42.805,6.029,13.3046,4.60134,2470.81,2024-3-29T05:47:51Z
2024-03-29T03:48:16Z,42.805,6.029,13.3047,4.60135,2470.796,2024-3-29T05:50:54Z
2024-03-29T03:51:19Z,42.805,6.029,13.3044,4.60135,2470.81,2024-3-29T05:53:58Z
2024-03-29T03:54:22Z,42.805,6.029,13.3048,4.60135,2470.833,2024-3-29T05:57:01Z
2024-03-29T03:57:25Z,42.805,6.029,13.3046,4.60135,2470.871,2024-3-29T06:00:04Z
2024-03-29T04:00:28Z,42.805,6.029,13.3046,4.60135,2470.833,2024-3-29T06:03:07Z
2024-03-29T04:03:31Z,42.805,6.029,13.3045,4.60133,2470.824,2024-3-29T06:06:10Z
2024-03-29T04:06:34Z,42.805,6.029,13.3043,4.60135,2470.824,2024-3-29T06:09:13Z
2024-03-29T04:09:37Z,42.805,6.029,13.3046,4.60134,2470.847,2024-3-29T06:12:16Z
2024-03-29T04:12:40Z,42.805,6.029,13.3043,4.60135,2470.824,2024-3-29T06:15:19Z
2024-03-29T04:15:44Z,42.805,6.029,13.3046,4.60135,2470.824,2024-3-29T06:18:22Z
2024-03-29T04:18:47Z,42.805,6.029,13.3047,4.60134,2470.833,2024-3-29T06:21:25Z
2024-03-29T04:21:50Z,42.805,6.029,13.3048,4.60134,2470.833,2024-3-29T06:24:28Z
2024-03-29T04:24:53Z,42.805,6.029,13.3050,4.60137,2470.81,2024-3-29T06:27:31Z
2024-03-29T04:27:56Z,42.805,6.029,13.3049,4.60137,2470.847,2024-3-29T06:30:34Z
2024-03-29T04:30:59Z,42.805,6.029,13.3044,4.60136,2470.847,2024-3-29T06:33:38Z
2024-03-29T04:34:02Z,42.805,6.029,13.3050,4.60133,2470.857,2024-3-29T06:36:41Z
2024-03-29T04:37:05Z,42.805,6.029,13.3048,4.60135,2470.81,2024-3-29T06:39:44Z
2024-03-29T04:40:08Z,42.805,6.029,13.3044,4.60135,2470.847,2024-3-29T06:42:47Z
2024-03-29T04:43:11Z,42.805,6.029,13.3048,4.60134,2470.824,2024-3-29T06:45:50Z
2024-03-29T04:46:14Z,42.805,6.029,13.3048,4.60134,2470.871,2024-3-29T06:48:53Z
2024-03-29T04:49:17Z,42.805,6.029,13.3044,4.60135,2470.847,2024-3-29T06:51:56Z
2024-03-29T04:52:21Z,42.805,6.029,13.3046,4.60134,2470.847,2024-3-29T06:54:59Z
2024-03-29T04:55:24Z,42.805,6.029,13.3042,4.60136,2470.847,2024-3-29T06:58:02Z
2024-03-29T04:58:27Z,42.805,6.029,13.3044,4.60134,2470.81,2024-3-29T07:01:05Z
2024-03-29T05:01:30Z,42.805,6.029,13.3048,4.60135,2470.847,2024-3-29T07:04:08Z
2024-03-29T05:04:33Z,42.805,6.029,13.3046,4.60134,2470.866,2024-3-29T07:07:11Z
2024-03-29T05:07:36Z,42.805,6.029,13.3046,4.60134,2470.857,2024-3-29T07:10:15Z
2024-03-29T05:10:39Z,42.805,6.029,13.3047,4.60133,2470.871,2024-3-29T07:13:18Z
2024-03-29T05:13:42Z,42.805,6.029,13.3043,4.60132,2470.847,2024-3-29T07:16:21Z
2024-03-29T05:16:45Z,42.805,6.029,13.3047,4.60134,2470.833,2024-3-29T07:19:24Z
2024-03-29T05:19:48Z,42.805,6.029,13.3049,4.60135,2470.833,2024-3-29T07:22:27Z
2024-03-29T05:22:51Z,42.805,6.029,13.3041,4.60134,2470.833,2024-3-29T07:25:30Z
2024-03-29T05:25:54Z,42.805,6.029,13.3046,4.60133,2470.857,2024-3-29T07:28:33Z
2024-03-29T05:28:58Z,42.805,6.029,13.3046,4.60135,2470.857,2024-3-29T07:31:36Z
2024-03-29T05:32:01Z,42.805,6.029,13.3047,4.60134,2470.847,2024-3-29T07:34:39Z
2024-03-29T05:35:04Z,42.805,6.029,13.3047,4.60134,2470.833,2024-3-29T07:37:42Z
2024-03-29T05:38:07Z,42.805,6.029,13.3046,4.60134,2470.894,2024-3-29T07:40:45Z
2024-03-29T05:41:10Z,42.805,6.029,13.3044,4.60133,2470.894,2024-3-29T07:43:48Z
2024-03-29T05:44:13Z,42.805,6.029,13.3046,4.60134,2470.904,2024-3-29T07:46:52Z
2024-03-29T05:47:16Z,42.805,6.029,13.3044,4.60135,2470.894,2024-3-29T07:49:55Z
2024-03-29T05:50:19Z,42.805,6.029,13.3040,4.60135,2470.871,2024-3-29T07:52:58Z
2024-03-29T05:53:22Z,42.805,6.029,13.3046,4.60136,2470.88,2024-3-29T07:56:01Z
2024-03-29T05:56:25Z,42.805,6.029,13.3046,4.60135,2470.917,2024-3-29T07:59:04Z
2024-03-29T05:59:28Z,42.805,6.029,13.3043,4.60134,2470.88,2024-3-29T08:02:07Z
2024-03-29T06:02:31Z,42.805,6.029,13.3051,4.60135,2470.904,2024-3-29T08:05:10Z
2024-03-29T06:05:34Z,42.805,6.029,13.3051,4.60133,2470.894,2024-3-29T08:08:13Z
2024-03-29T06:08:38Z,42.805,6.029,13.3048,4.60134,2470.857,2024-3-29T08:11:16Z
2024-03-29T06:11:41Z,42.805,6.029,13.3046,4.60134,2470.904,2024-3-29T08:14:19Z
2024-03-29T06:14:44Z,42.805,6.029,13.3043,4.60134,2470.871,2024-3-29T08:17:22Z
2024-03-29T06:17:47Z,42.805,6.029,13.3046,4.60133,2470.857,2024-3-29T08:20:25Z
2024-03-29T06:20:50Z,42.805,6.029,13.3044,4.60134,2470.88,2024-3-29T08:23:29Z
2024-03-29T06:23:53Z,42.805,6.029,13.3044,4.60135,2470.88,2024-3-29T08:26:32Z
2024-03-29T06:26:56Z,42.805,6.029,13.3047,4.60134,2470.904,2024-3-29T08:29:35Z
2024-03-29T06:29:59Z,42.805,6.029,13.3046,4.60135,2470.927,2024-3-29T08:32:38Z
2024-03-29T06:33:02Z,42.805,6.029,13.3048,4.60134,2470.927,2024-3-29T08:35:41Z
2024-03-29T06:36:05Z,42.805,6.029,13.3045,4.60135,2470.88,2024-3-29T08:38:44Z
2024-03-29T06:39:08Z,42.805,6.029,13.3044,4.60134,2470.894,2024-3-29T08:41:47Z
2024-03-29T06:42:11Z,42.805,6.029,13.3047,4.60135,2470.904,2024-3-29T08:44:50Z
2024-03-29T06:45:15Z,42.805,6.029,13.3047,4.60136,2470.894,2024-3-29T08:47:53Z
2024-03-29T06:48:18Z,42.805,6.029,13.3047,4.60135,2470.904,2024-3-29T08:50:56Z
2024-03-29T06:51:21Z,42.805,6.029,13.3045,4.60133,2470.894,2024-3-29T08:53:59Z
2024-03-29T06:54:24Z,42.805,6.029,13.3045,4.60135,2470.904,2024-3-29T08:57:02Z
2024-03-29T06:57:27Z,42.805,6.029,13.3043,4.60134,2470.904,2024-3-29T09:00:05Z
2024-03-29T07:00:30Z,42.805,6.029,13.3046,4.60135,2470.904,2024-3-29T09:03:09Z
2024-03-29T07:03:33Z,42.805,6.029,13.3045,4.60135,2470.95,2024-3-29T09:06:12Z
2024-03-29T07:06:36Z,42.805,6.029,13.3047,4.60135,2470.987,2024-3-29T09:09:15Z
2024-03-29T07:09:39Z,42.805,6.029,13.3048,4.60135,2470.927,2024-3-29T09:12:18Z
2024-03-29T07:12:42Z,42.805,6.029,13.3051,4.60142,2470.94,2024-3-29T09:15:21Z
2024-03-29T07:15:45Z,42.805,6.029,13.3045,4.60134,2470.94,2024-3-29T09:18:24Z
2024-03-29T07:18:48Z,42.805,6.029,13.3048,4.60134,2470.927,2024-3-29T09:21:27Z
2024-03-29T07:21:51Z,42.805,6.029,13.3047,4.60135,2470.904,2024-3-29T09:24:30Z
2024-03-29T07:24:55Z,42.805,6.029,13.3046,4.60134,2470.987,2024-3-29T09:27:33Z
2024-03-29T07:27:58Z,42.805,6.029,13.3046,4.60134,2470.904,2024-3-29T09:30:36Z
2024-03-29T07:31:01Z,42.805,6.029,13.3046,4.60135,2470.927,2024-3-29T09:33:39Z
2024-03-29T07:34:04Z,42.805,6.029,13.3044,4.60135,2470.927,2024-3-29T09:36:42Z
2024-03-29T07:37:07Z,42.805,6.029,13.3046,4.60135,2470.95,2024-3-29T09:39:46Z
2024-03-29T07:40:10Z,42.805,6.029,13.3045,4.60135,2470.964,2024-3-29T09:42:49Z
2024-03-29T07:43:13Z,42.805,6.029,13.3048,4.60135,2470.927,2024-3-29T09:45:52Z
2024-03-29T07:46:16Z,42.805,6.029,13.3046,4.60135,2470.95,2024-3-29T09:48:55Z
2024-03-29T07:49:19Z,42.805,6.029,13.3046,4.60135,2470.997,2024-3-29T09:51:58Z
2024-03-29T07:52:22Z,42.805,6.029,13.3048,4.60135,2470.964,2024-3-29T09:55:01Z
2024-03-29T07:55:25Z,42.805,6.029,13.3045,4.60135,2470.95,2024-3-29T09:58:04Z
2024-03-29T07:58:28Z,42.805,6.029,13.3046,4.60135,2470.95,2024-3-29T10:01:07Z
2024-03-29T08:01:32Z,42.805,6.029,13.3047,4.60135,2470.973,2024-3-29T10:04:10Z
2024-03-29T08:04:35Z,42.805,6.029,13.3046,4.60134,2470.95,2024-3-29T10:07:13Z
2024-03-29T08:07:38Z,42.805,6.029,13.3044,4.60135,2470.927,2024-3-29T10:10:16Z
2024-03-29T08:10:41Z,42.805,6.029,13.3049,4.60135,2470.987,2024-3-29T10:13:19Z
2024-03-29T08:13:44Z,42.805,6.029,13.3048,4.60133,2470.973,2024-3-29T10:16:22Z
2024-03-29T08:16:47Z,42.805,6.029,13.3044,4.60133,2470.95,2024-3-29T10:19:26Z
2024-03-29T08:19:50Z,42.805,6.029,13.3044,4.60137,2470.973,2024-3-29T10:22:29Z
2024-03-29T08:22:53Z,42.805,6.029,13.3047,4.60135,2470.973,2024-3-29T10:25:32Z
2024-03-29T08:25:56Z,42.805,6.029,13.3041,4.60134,2470.997,2024-3-29T10:28:35Z
2024-03-29T08:28:59Z,42.805,6.029,13.3046,4.60133,2470.959,2024-3-29T10:31:38Z
2024-03-29T08:32:02Z,42.805,6.029,13.3045,4.60133,2470.997,2024-3-29T10:34:41Z
2024-03-29T08:35:05Z,42.805,6.029,13.3048,4.60133,2470.973,2024-3-29T10:37:44Z
2024-03-29T08:38:09Z,42.805,6.029,13.3043,4.60133,2470.973,2024-3-29T10:40:47Z
2024-03-29T08:41:12Z,42.805,6.029,13.3043,4.60132,2471.01,2024-3-29T10:43:50Z
2024-03-29T08:44:15Z,42.805,6.029,13.3043,4.60133,2470.973,2024-3-29T10:46:53Z
2024-03-29T08:47:18Z,42.805,6.029,13.3041,4.60134,2470.973,2024-3-29T10:49:56Z
2024-03-29T08:50:21Z,42.805,6.029,13.3046,4.60134,2471.02,2024-3-29T10:53:00Z
2024-03-29T08:53:24Z,42.805,6.029,13.3046,4.60133,2470.987,2024-3-29T10:56:03Z
2024-03-29T08:56:27Z,42.805,6.029,13.3042,4.60134,2470.987,2024-3-29T10:59:06Z
2024-03-29T08:59:30Z,42.805,6.029,13.3046,4.60132,2470.997,2024-3-29T11:02:09Z
2024-03-29T09:02:33Z,42.805,6.029,13.3043,4.60132,2470.987,2024-3-29T11:05:12Z
2024-03-29T09:05:36Z,42.805,6.029,13.3042,4.60132,2470.997,2024-3-29T11:08:15Z
2024-03-29T09:08:39Z,42.805,6.029,13.3043,4.60134,2470.997,2024-3-29T11:11:18Z
2024-03-29T09:11:42Z,42.805,6.029,13.3046,4.60132,2470.973,2024-3-29T11:14:21Z
2024-03-29T09:14:46Z,42.805,6.029,13.3042,4.60132,2470.997,2024-3-29T11:17:24Z
2024-03-29T09:17:49Z,42.805,6.029,13.3044,4.60133,2471.01,2024-3-29T11:20:27Z
2024-03-29T09:20:52Z,42.805,6.029,13.3043,4.60132,2470.997,2024-3-29T11:23:30Z
2024-03-29T09:23:55Z,42.805,6.029,13.3045,4.60132,2470.973,2024-3-29T11:26:33Z
2024-03-29T09:26:58Z,42.805,6.029,13.3044,4.60132,2470.95,2024-3-29T11:29:37Z
2024-03-29T09:30:01Z,42.805,6.029,13.3042,4.60132,2471.01,2024-3-29T11:32:40Z
2024-03-29T09:33:04Z,42.805,6.029,13.3049,4.60133,2470.987,2024-3-29T11:35:43Z
2024-03-29T09:36:07Z,42.805,6.029,13.3046,4.60132,2470.964,2024-3-29T11:38:46Z
2024-03-29T09:39:10Z,42.805,6.029,13.3046,4.60135,2471.034,2024-3-29T11:41:49Z
2024-03-29T09:42:13Z,42.805,6.029,13.3042,4.60133,2470.987,2024-3-29T11:44:52Z
2024-03-29T09:45:16Z,42.805,6.029,13.3046,4.60131,2470.973,2024-3-29T11:47:55Z
2024-03-29T09:48:19Z,42.805,6.029,13.3042,4.60132,2470.964,2024-3-29T11:50:58Z
2024-03-29T09:51:23Z,42.805,6.029,13.3045,4.60132,2470.964,2024-3-29T11:54:01Z
2024-03-29T09:54:26Z,42.805,6.029,13.3045,4.60133,2470.973,2024-3-29T11:57:04Z
2024-03-29T09:57:29Z,42.805,6.029,13.3045,4.60132,2470.95,2024-3-29T12:00:07Z
2024-03-29T10:00:32Z,42.805,6.029,13.3044,4.60132,2470.973,2024-3-29T12:03:10Z
2024-03-29T10:03:35Z,42.805,6.029,13.3041,4.60132,2470.95,2024-3-29T12:06:14Z
2024-03-29T10:06:38Z,42.805,6.029,13.3041,4.60132,2470.987,2024-3-29T12:09:17Z
2024-03-29T10:09:41Z,42.805,6.029,13.3040,4.60131,2470.997,2024-3-29T12:12:20Z
2024-03-29T10:12:44Z,42.805,6.029,13.3046,4.60132,2470.927,2024-3-29T12:15:23Z
2024-03-29T10:15:47Z,42.805,6.029,13.3039,4.60131,2470.95,2024-3-29T12:18:26Z
2024-03-29T10:18:50Z,42.805,6.029,13.3043,4.60131,2470.964,2024-3-29T12:21:29Z
2024-03-29T10:21:53Z,42.805,6.029,13.3043,4.60131,2470.95,2024-3-29T12:24:32Z
2024-03-29T10:24:56Z,42.805,6.029,13.3045,4.60131,2470.936,2024-3-29T12:27:35Z
2024-03-29T10:28:00Z,42.805,6.029,13.3046,4.60131,2470.964,2024-3-29T12:30:38Z
2024-03-29T10:31:03Z,42.805,6.029,13.3042,4.60063,2470.94,2024-3-29T12:33:41Z
2024-03-29T10:34:06Z,42.805,6.029,13.3044,4.60131,2470.95,2024-3-29T12:36:44Z
2024-03-29T10:37:09Z,42.805,6.029,13.3039,4.60130,2470.95,2024-3-29T12:39:47Z
2024-03-29T10:40:12Z,42.805,6.029,13.3046,4.60130,2470.927,2024-3-29T12:42:51Z
2024-03-29T10:43:15Z,42.805,6.029,13.3041,4.60130,2470.973,2024-3-29T12:45:54Z
2024-03-29T10:46:18Z,42.805,6.029,13.3043,4.60133,2470.964,2024-3-29T12:48:57Z
2024-03-29T10:49:21Z,42.805,6.029,13.3042,4.60131,2470.927,2024-3-29T12:52:00Z
2024-03-29T10:52:24Z,42.805,6.029,13.3044,4.60130,2470.927,2024-3-29T12:55:03Z
2024-03-29T10:55:27Z,42.805,6.029,13.3044,4.60130,2470.94,2024-3-29T12:58:06Z
2024-03-29T10:58:30Z,42.805,6.029,13.3043,4.60130,2470.927,2024-3-29T13:01:09Z
2024-03-29T11:01:33Z,42.805,6.029,13.3045,4.60131,2470.95,2024-3-29T13:04:12Z
2024-03-29T11:04:37Z,42.805,6.029,13.3046,4.60132,2470.964,2024-3-29T13:07:15Z
2024-03-29T11:07:40Z,42.805,6.029,13.3044,4.60130,2470.964,2024-3-29T13:10:18Z
2024-03-29T11:10:43Z,42.805,6.029,13.3045,4.60132,2470.927,2024-3-29T13:13:21Z
2024-03-29T11:13:46Z,42.805,6.029,13.3044,4.60130,2470.95,2024-3-29T13:16:24Z
2024-03-29T11:16:49Z,42.805,6.029,13.3046,4.60132,2470.964,2024-3-29T13:19:28Z
2024-03-29T11:19:52Z,42.805,6.029,13.3042,4.60131,2470.95,2024-3-29T13:22:31Z
2024-03-29T11:22:55Z,42.805,6.029,13.3046,4.60130,2470.917,2024-3-29T13:25:34Z
2024-03-29T11:25:58Z,42.805,6.029,13.3042,4.60131,2470.94,2024-3-29T13:28:37Z
2024-03-29T11:29:01Z,42.805,6.029,13.3040,4.60129,2470.904,2024-3-29T13:31:40Z
2024-03-29T11:32:04Z,42.805,6.029,13.3046,4.60131,2470.94,2024-3-29T13:34:43Z
2024-03-29T11:35:07Z,42.805,6.029,13.3043,4.60132,2470.927,2024-3-29T13:37:46Z
2024-03-29T11:38:10Z,42.805,6.029,13.3045,4.60130,2470.927,2024-3-29T13:40:49Z
2024-03-29T11:41:14Z,42.805,6.029,13.3039,4.60130,2470.904,2024-3-29T13:43:52Z
2024-03-29T11:44:17Z,42.805,6.029,13.3039,4.60129,2470.917,2024-3-29T13:46:55Z
2024-03-29T11:47:20Z,42.805,6.029,13.3042,4.60129,2470.904,2024-3-29T13:49:58Z
2024-03-29T11:50:23Z,42.805,6.029,13.3044,4.60129,2470.904,2024-3-29T13:53:01Z
2024-03-29T11:53:26Z,42.805,6.029,13.3043,4.60130,2470.964,2024-3-29T13:56:05Z
2024-03-29T11:56:29Z,42.805,6.029,13.3042,4.60130,2470.904,2024-3-29T13:59:08Z
2024-03-29T11:59:32Z,42.805,6.029,13.3043,4.60132,2470.904,2024-3-29T14:02:11Z
2024-03-29T12:02:35Z,42.805,6.029,13.3040,4.60131,2470.904,2024-3-29T14:05:14Z
2024-03-29T12:05:38Z,42.805,6.029,13.3043,4.60130,2470.904,2024-3-29T14:08:17Z
2024-03-29T12:08:41Z,42.805,6.029,13.3042,4.60130,2470.904,2024-3-29T14:11:20Z
2024-03-29T12:11:44Z,42.805,6.029,13.3038,4.60129,2470.927,2024-3-29T14:14:23Z
2024-03-29T12:14:47Z,42.805,6.029,13.3038,4.60132,2470.88,2024-3-29T14:17:26Z
2024-03-29T12:17:51Z,42.805,6.029,13.3046,4.60130,2470.904,2024-3-29T14:20:29Z
2024-03-29T12:20:54Z,42.805,6.029,13.3039,4.60130,2470.904,2024-3-29T14:23:32Z
2024-03-29T12:23:57Z,42.805,6.029,13.3041,4.60129,2470.917,2024-3-29T14:26:35Z
2024-03-29T12:27:00Z,42.805,6.029,13.3045,4.60131,2470.917,2024-3-29T14:29:38Z
2024-03-29T12:30:03Z,42.805,6.029,13.3046,4.60129,2470.88,2024-3-29T14:32:42Z
2024-03-29T12:33:06Z,42.805,6.029,13.3042,4.60129,2470.89,2024-3-29T14:35:45Z
2024-03-29T12:36:09Z,42.805,6.029,13.3047,4.60131,2470.917,2024-3-29T14:38:48Z
2024-03-29T12:39:12Z,42.805,6.029,13.3043,4.60129,2470.894,2024-3-29T14:41:51Z
2024-03-29T12:42:15Z,42.805,6.029,13.3041,4.60129,2470.904,2024-3-29T14:44:54Z
2024-03-29T12:45:18Z,42.805,6.029,13.3041,4.60129,2470.88,2024-3-29T14:47:57Z
2024-03-29T12:48:21Z,42.805,6.029,13.3046,4.60130,2470.894,2024-3-29T14:51:00Z
2024-03-29T12:51:25Z,42.805,6.029,13.3043,4.60129,2470.857,2024-3-29T14:54:03Z
2024-03-29T12:54:28Z,42.805,6.029,13.3043,4.60129,2470.871,2024-3-29T14:57:06Z
2024-03-29T12:57:31Z,42.805,6.029,13.3046,4.60130,2470.904,2024-3-29T15:00:09Z
2024-03-29T13:00:34Z,42.805,6.029,13.3042,4.60129,2470.871,2024-3-29T15:03:12Z
2024-03-29T13:03:37Z,42.805,6.029,13.3044,4.60129,2470.88,2024-3-29T15:06:16Z
2024-03-29T13:06:40Z,42.805,6.029,13.3042,4.60131,2470.894,2024-3-29T15:09:19Z
2024-03-29T13:09:43Z,42.805,6.029,13.3043,4.60129,2470.88,2024-3-29T15:12:22Z
2024-03-29T13:12:46Z,42.805,6.029,13.3043,4.60130,2470.833,2024-3-29T15:15:25Z
2024-03-29T13:15:49Z,42.805,6.029,13.3041,4.60129,2470.857,2024-3-29T15:18:28Z
2024-03-29T13:18:52Z,42.805,6.029,13.3043,4.60129,2470.81,2024-3-29T15:21:31Z
2024-03-29T13:21:55Z,42.805,6.029,13.3041,4.60130,2470.833,2024-3-29T15:24:34Z
2024-03-29T13:24:58Z,42.805,6.029,13.3044,4.60130,2470.871,2024-3-29T15:27:37Z
2024-03-29T13:28:02Z,42.805,6.029,13.3043,4.60129,2470.88,2024-3-29T15:30:40Z
2024-03-29T13:31:05Z,42.805,6.029,13.3043,4.60130,2470.857,2024-3-29T15:33:43Z
2024-03-29T13:34:08Z,42.805,6.029,13.3042,4.60129,2470.871,2024-3-29T15:36:46Z
2024-03-29T13:37:11Z,42.805,6.029,13.3041,4.60129,2470.857,2024-3-29T15:39:50Z
2024-03-29T13:40:14Z,42.805,6.029,13.3039,4.60129,2470.857,2024-3-29T15:42:53Z
2024-03-29T13:43:17Z,42.805,6.029,13.3041,4.60130,2470.871,2024-3-29T15:45:56Z
2024-03-29T13:46:20Z,42.805,6.029,13.3042,4.60129,2470.871,2024-3-29T15:48:59Z
2024-03-29T13:49:23Z,42.805,6.029,13.3046,4.60130,2470.88,2024-3-29T15:52:02Z
2024-03-29T13:52:26Z,42.805,6.029,13.3043,4.60129,2470.833,2024-3-29T15:55:05Z
2024-03-29T13:55:29Z,42.805,6.029,13.3045,4.60129,2470.857,2024-3-29T15:58:08Z
2024-03-29T13:58:32Z,42.805,6.029,13.3041,4.60129,2470.847,2024-3-29T16:01:11Z
2024-03-29T14:01:36Z,42.805,6.029,13.3043,4.60129,2470.871,2024-3-29T16:04:14Z
2024-03-29T14:04:39Z,42.805,6.029,13.3044,4.60129,2470.824,2024-3-29T16:07:17Z
2024-03-29T14:07:42Z,42.805,6.029,13.3042,4.60130,2470.81,2024-3-29T16:10:20Z
2024-03-29T14:10:45Z,42.805,6.029,13.3039,4.60129,2470.857,2024-3-29T16:13:23Z
2024-03-29T14:13:48Z,42.805,6.029,13.3043,4.60129,2470.82,2024-3-29T16:16:27Z
2024-03-29T14:16:51Z,42.805,6.029,13.3045,4.60129,2470.857,2024-3-29T16:19:30Z
2024-03-29T14:19:54Z,42.805,6.029,13.3043,4.60129,2470.847,2024-3-29T16:22:33Z
2024-03-29T14:22:57Z,42.805,6.029,13.3045,4.60129,2470.824,2024-3-29T16:25:36Z
2024-03-29T14:26:00Z,42.805,6.029,13.3044,4.60129,2470.81,2024-3-29T16:28:39Z
2024-03-29T14:29:03Z,42.805,6.029,13.3041,4.60129,2470.81,2024-3-29T16:31:42Z
2024-03-29T14:32:06Z,42.805,6.029,13.3042,4.60135,2470.833,2024-3-29T16:34:45Z
2024-03-29T14:35:09Z,42.805,6.029,13.3042,4.60130,2470.824,2024-3-29T16:37:48Z
2024-03-29T14:38:13Z,42.805,6.029,13.3043,4.60130,2470.824,2024-3-29T16:40:51Z
2024-03-29T14:41:16Z,42.805,6.029,13.3044,4.60130,2470.824,2024-3-29T16:43:54Z
2024-03-29T14:44:19Z,42.805,6.029,13.3045,4.60130,2470.824,2024-3-29T16:46:57Z
2024-03-29T14:47:22Z,42.805,6.029,13.3041,4.60130,2470.81,2024-3-29T16:50:00Z
2024-03-29T14:50:25Z,42.805,6.029,13.3038,4.60129,2470.824,2024-3-29T16:53:04Z
2024-03-29T14:53:28Z,42.805,6.029,13.3039,4.60137,2470.81,2024-3-29T16:56:07Z
2024-03-29T14:56:31Z,42.805,6.029,13.3041,4.60130,2470.847,2024-3-29T16:59:10Z
2024-03-29T14:59:34Z,42.805,6.029,13.3040,4.60129,2470.777,2024-3-29T17:02:13Z
2024-03-29T15:02:37Z,42.805,6.029,13.3039,4.60130,2470.787,2024-3-29T17:05:16Z
2024-03-29T15:05:40Z,42.805,6.029,13.3040,4.60129,2470.787,2024-3-29T17:08:19Z
2024-03-29T15:08:43Z,42.805,6.029,13.3041,4.60129,2470.8,2024-3-29T17:11:22Z
2024-03-29T15:11:46Z,42.805,6.029,13.3045,4.60129,2470.787,2024-3-29T17:14:25Z